Time,TemperatureF,DewpointF,PressureIn,WindDirection,WindDirectionDegrees,WindSpeedMPH,WindSpeedGustMPH,Humidity,HourlyPrecipIn,Conditions,Clouds,dailyrainin,SoftwareType,DateUTC
2017-07-26 00:14:00,59.9,56.0,29.66,NNW,339,5.0,7.0,88,0.00,,,0.00,weatherlink.com 1.10,2017-07-25 22:14:00,
2017-07-26 00:29:00,59.7,57.0,29.66,NNE,14,0.0,8.0,89,0.00,,,0.00,weatherlink.com 1.10,2017-07-25 22:29:00,
2017-07-26 00:44:00,59.4,56.0,29.65,NNW,346,4.0,6.0,89,0.00,,,0.00,weatherlink.com 1.10,2017-07-25 22:44:00,
2017-07-26 00:59:00,59.3,56.0,29.65,NNW,340,0.0,9.0,89,0.00,,,0.00,weatherlink.com 1.10,2017-07-25 22:59:00,
2017-07-26 01:14:00,59.3,56.0,29.65,NNW,347,0.0,10.0,88,0.00,,,0.00,weatherlink.com 1.10,2017-07-25 23:14:00,
2017-07-26 01:29:00,59.4,56.0,29.65,North,9,0.0,8.0,88,0.00,,,0.00,weatherlink.com 1.10,2017-07-25 23:29:00,
2017-07-26 01:44:00,59.4,56.0,29.65,North,5,0.0,8.0,88,0.00,,,0.00,weatherlink.com 1.10,2017-07-25 23:44:00,
2017-07-26 01:59:00,59.5,56.0,29.65,NNE,13,0.0,7.0,87,0.00,,,0.00,weatherlink.com 1.10,2017-07-25 23:59:00,
2017-07-26 02:14:00,59.5,56.0,29.65,NNW,342,0.0,8.0,87,0.00,,,0.00,weatherlink.com 1.10,2017-07-26 00:14:00,
2017-07-26 02:29:00,59.4,56.0,29.65,North,355,0.0,7.0,87,0.00,,,0.00,weatherlink.com 1.10,2017-07-26 00:29:00,
2017-07-26 02:45:00,59.1,55.0,29.64,NNW,347,0.0,7.0,87,0.00,,,0.00,weatherlink.com 1.10,2017-07-26 00:45:00,
2017-07-26 02:59:00,59.0,56.0,29.64,North,5,0.0,8.0,88,0.00,,,0.00,weatherlink.com 1.10,2017-07-26 00:59:00,
2017-07-26 03:14:00,59.0,56.0,29.64,North,360,0.0,8.0,88,0.00,,,0.00,weatherlink.com 1.10,2017-07-26 01:14:00,
2017-07-26 03:29:00,59.0,56.0,29.64,NNW,340,0.0,9.0,88,0.00,,,0.00,weatherlink.com 1.10,2017-07-26 01:29:00,
2017-07-26 03:44:00,59.0,56.0,29.63,NNE,23,0.0,9.0,88,0.00,,,0.00,weatherlink.com 1.10,2017-07-26 01:44:00,
2017-07-26 03:59:00,58.8,55.0,29.63,North,349,7.0,10.0,88,0.00,,,0.00,weatherlink.com 1.10,2017-07-26 01:59:00,
2017-07-26 04:14:00,58.6,55.0,29.63,North,360,0.0,9.0,88,0.00,,,0.00,weatherlink.com 1.10,2017-07-26 02:14:00,
2017-07-26 04:29:00,58.5,55.0,29.63,North,5,0.0,5.0,89,0.00,,,0.00,weatherlink.com 1.10,2017-07-26 02:29:00,
2017-07-26 04:44:00,58.4,55.0,29.63,NNE,13,0.0,5.0,89,0.00,,,0.00,weatherlink.com 1.10,2017-07-26 02:44:00,
2017-07-26 04:59:00,58.2,55.0,29.63,North,360,0.0,9.0,89,0.00,,,0.00,weatherlink.com 1.10,2017-07-26 02:59:00,
2017-07-26 05:15:00,58.2,55.0,29.63,North,9,0.0,5.0,89,0.00,,,0.00,weatherlink.com 1.10,2017-07-26 03:15:00,
2017-07-26 05:29:00,58.2,55.0,29.64,NNE,14,0.0,6.0,89,0.00,,,0.00,weatherlink.com 1.10,2017-07-26 03:29:00,
2017-07-26 05:44:00,58.1,55.0,29.63,North,360,0.0,7.0,89,0.00,,,0.00,weatherlink.com 1.10,2017-07-26 03:44:00,
2017-07-26 05:59:00,58.1,55.0,29.63,North,355,0.0,8.0,89,0.00,,,0.00,weatherlink.com 1.10,2017-07-26 03:59:00,
2017-07-26 06:15:00,58.1,55.0,29.63,North,5,6.0,11.0,89,0.00,,,0.00,weatherlink.com 1.10,2017-07-26 04:15:00,
2017-07-26 06:30:00,58.3,56.0,29.63,North,355,0.0,9.0,90,0.00,,,0.00,weatherlink.com 1.10,2017-07-26 04:30:00,
2017-07-26 06:44:00,58.5,56.0,29.62,NNE,23,5.0,9.0,90,0.00,,,0.00,weatherlink.com 1.10,2017-07-26 04:44:00,
2017-07-26 06:59:00,58.7,56.0,29.63,North,5,0.0,8.0,89,0.00,,,0.00,weatherlink.com 1.10,2017-07-26 04:59:00,
2017-07-26 07:14:00,59.0,56.0,29.63,North,5,0.0,7.0,89,0.00,,,0.00,weatherlink.com 1.10,2017-07-26 05:14:00,
2017-07-26 07:29:00,59.0,56.0,29.63,North,355,0.0,8.0,89,0.00,,,0.00,weatherlink.com 1.10,2017-07-26 05:29:00,
2017-07-26 07:44:00,59.4,56.0,29.62,North,9,0.0,9.0,88,0.00,,,0.00,weatherlink.com 1.10,2017-07-26 05:44:00,
2017-07-26 07:59:00,59.7,56.0,29.63,NNE,28,0.0,7.0,88,0.00,,,0.00,weatherlink.com 1.10,2017-07-26 05:59:00,
2017-07-26 08:14:00,60.0,56.0,29.62,NNE,19,0.0,8.0,87,0.00,,,0.00,weatherlink.com 1.10,2017-07-26 06:14:00,
2017-07-26 08:29:00,60.3,57.0,29.62,NE,44,0.0,12.0,87,0.00,,,0.00,weatherlink.com 1.10,2017-07-26 06:29:00,
2017-07-26 08:44:00,60.7,57.0,29.62,NNE,17,0.0,11.0,86,0.00,,,0.00,weatherlink.com 1.10,2017-07-26 06:44:00,
2017-07-26 09:00:00,61.0,57.0,29.62,NNE,26,0.0,8.0,86,0.00,,,0.00,weatherlink.com 1.10,2017-07-26 07:00:00,
2017-07-26 09:15:00,61.4,57.0,29.62,North,5,4.0,10.0,85,0.00,,,0.00,weatherlink.com 1.10,2017-07-26 07:15:00,
2017-07-26 09:30:00,61.7,57.0,29.62,NNE,15,0.0,9.0,84,0.00,,,0.00,weatherlink.com 1.10,2017-07-26 07:30:00,
2017-07-26 09:45:00,62.1,57.0,29.62,North,355,7.0,12.0,83,0.00,,,0.00,weatherlink.com 1.10,2017-07-26 07:45:00,
2017-07-26 10:00:00,62.7,58.0,29.62,NNE,19,0.0,9.0,83,0.00,,,0.00,weatherlink.com 1.10,2017-07-26 08:00:00,